This is the latest recevied weather packets stored in our database for station/object N3AVN. If no packets are shown the sender has not sent any weather packets the latest 1 day(s).
| Time | Temp. | Humidity | Pressure | Rain* | Wind** | Luminosity | Snow |
|---|---|---|---|---|---|---|---|
| 1778033799 | 17.78° C | 66% | 1008.1 hPa | 0 mm | 1.79 m/s, 62° | 0 W/m² | - |
| 1778033496 | 18.33° C | 66% | 1008 hPa | 0 mm | 0.45 m/s, 270° | 0 W/m² | - |
| 1778033193 | 17.78° C | 66% | 1008.2 hPa | 0 mm | 0.89 m/s, 217° | 0 W/m² | - |
| 1778032891 | 17.78° C | 66% | 1008.2 hPa | 0 mm | 4.92 m/s, 203° | 0 W/m² | - |
| 1778032588 | 18.33° C | 65% | 1008.3 hPa | 0 mm | 1.34 m/s, 216° | 0 W/m² | - |
| 1778032285 | 17.78° C | 66% | 1008.1 hPa | 0 mm | 0.89 m/s, 129° | 0 W/m² | - |
| 1778031983 | 18.33° C | 65% | 1007.9 hPa | 0 mm | 1.34 m/s, 55° | 0 W/m² | - |
| 1778031678 | 18.33° C | 65% | 1008.1 hPa | 0 mm | 0.89 m/s, 74° | 0 W/m² | - |
| 1778031377 | 18.33° C | 65% | 1008 hPa | 0 mm | 0.89 m/s, 189° | 0 W/m² | - |
| 1778031073 | 18.33° C | 65% | 1007.7 hPa | 0 mm | 0.89 m/s, 112° | 0 W/m² | - |
| 1778030769 | 18.33° C | 65% | 1008 hPa | 0 mm | 1.34 m/s, 36° | 0 W/m² | - |
| 1778030466 | 18.33° C | 64% | 1007.7 hPa | 0 mm | 0 m/s | 0 W/m² | - |
| 1778030164 | 18.33° C | 65% | 1007.7 hPa | 0 mm | 1.34 m/s, 208° | 0 W/m² | - |
| 1778029860 | 18.89° C | 65% | 1007.5 hPa | 0 mm | 0 m/s | 0 W/m² | - |
| 1778029559 | 18.89° C | 64% | 1007.7 hPa | 0 mm | 0 m/s | 0 W/m² | - |
| 1778029255 | 18.89° C | 64% | 1007.6 hPa | 0 mm | 2.68 m/s, 263° | 0 W/m² | - |
| 1778028953 | 18.89° C | 64% | 1007.6 hPa | 0 mm | 1.79 m/s, 163° | 0 W/m² | - |
| 1778028648 | 18.89° C | 64% | 1007.4 hPa | 0 mm | 1.79 m/s, 115° | 0 W/m² | - |
| 1778028346 | 18.89° C | 63% | 1007.5 hPa | 0 mm | 0 m/s | 0 W/m² | - |
| 1778028047 | 19.44° C | 63% | 1007.2 hPa | 0 mm | 0.89 m/s, 166° | 0 W/m² | - |
| 1778027739 | 19.44° C | 63% | 1007.2 hPa | 0 mm | 0 m/s | 0 W/m² | - |
| 1778027435 | 19.44° C | 63% | 1007.1 hPa | 0 mm | 0 m/s | 0 W/m² | - |
| 1778027131 | 19.44° C | 63% | 1007.1 hPa | 0 mm | 0.89 m/s, 94° | 0 W/m² | - |
| 1778026827 | 19.44° C | 63% | 1006.9 hPa | 0 mm | 0 m/s | 0 W/m² | - |
| 1778026524 | 20° C | 62% | 1006.9 hPa | 0 mm | 0 m/s | 0 W/m² | - |
* Rain latest hour (hover to see other rain measurements)
** Current wind speed in m/s (hover to see current wind gust speed)